Theta_e
337 332 333 336 336 337 336 336 335 336 335 337 337 336 336 337 336 336 335 336 337 336 336 334 335 334 337 336 334 331 332 334 331
337 336 332 335 333 335 335 335 334 335 335 337 335 335 336 336 335 334 334 335 336 335 334 332 333 333 338 334 329 332 332 333 329
333 335 334 334 334 334 334 334 335 334 335 336 334 335 336 336 335 334 333 333 336 333 332 331 331 334 335 332 328 334 335 333 330
334 334 334 333 333 333 333 333 334 333 334 335 334 335 335 334 333 333 332 333 335 333 332 331 331 334 334 329 325 330 334 333 330
336 335 334 333 332 332 333 333 333 333 333 334 334 335 334 333 332 332 332 332 335 333 332 331 332 335 332 325 325 334 333 331 326
333 334 334 334 333 332 332 332 333 333 332 333 335 335 334 334 332 331 331 330 334 333 331 330 333 334 333 327 325 327 330 327 325
332 332 334 334 333 332 331 332 332 332 332 333 333 334 334 334 333 332 330 330 334 331 331 330 333 333 329 326 324 328 327 325 324
333 333 331 330 334 334 333 331 332 332 332 332 333 333 334 334 333 332 331 330 332 331 330 331 332 332 329 325 326 329 328 326 323
332 333 332 332 331 331 332 332 332 332 332 332 332 332 333 333 332 330 327 330 329 331 330 333 333 330 328 324 320 324 329 326 322
329 331 332 332 332 331 331 333 332 332 332 331 332 330 330 332 331 332 327 328 330 327 331 332 332 332 331 326 323 320 326 328 322
327 328 328 329 330 330 330 330 331 333 332 331 331 331 330 328 327 328 330 326 329 328 326 331 332 332 332 330 327 325 328 329 325
324 324 324 324 325 327 327 327 329 329 331 331 332 330 329 324 321 316 317 320 324 324 326 327 330 331 331 330 329 327 326 328 326
317 319 319 321 322 323 324 326 326 327 328 330 330 329 326 321 318 322 322 324 318 319 325 327 327 328 331 331 330 328 328 327 326
311 312 312 314 316 320 320 322 323 325 327 326 327 327 328 325 326 325 329 327 318 317 317 328 327 328 328 332 330 329 329 327 326
309 309 309 309 311 312 315 316 318 319 321 324 325 325 325 326 325 323 323 327 328 328 325 322 328 328 328 329 330 330 330 328 326
303 303 305 306 307 304 305 310 312 315 317 319 324 324 324 324 324 324 324 323 322 323 325 327 328 329 329 329 328 329 331 329 327
300 301 300 301 303 302 301 301 306 309 311 315 317 323 324 325 324 324 324 325 325 325 325 326 327 328 328 329 328 328 328 330 328
297 298 299 299 302 299 298 299 300 304 308 308 312 320 323 321 324 325 325 324 324 325 325 324 325 326 326 325 325 326 324 326 330
293 294 295 296 297 296 296 297 297 299 301 304 308 308 310 319 321 322 321 323 324 324 324 324 325 324 325 323 323 322 322 323 327
287 288 290 292 292 293 294 296 296 295 296 297 297 300 302 304 309 318 318 319 320 320 320 318 317 321 323 323 323 322 322 320 321
Wind_Speed
8 9 6 6 9 10 9 9 11 13 14 15 16 19 20 20 19 18 16 16 14 13 14 15 13 14 17 16 15 12 17 18 18
10 10 9 7 8 10 10 10 10 12 15 17 17 19 20 20 19 17 16 15 13 12 13 13 13 13 18 16 12 17 17 20 19
12 13 12 9 8 10 11 11 11 13 16 17 18 20 20 19 18 16 14 11 13 13 12 12 13 16 17 16 12 14 20 20 16
12 12 13 11 10 11 12 11 11 13 17 18 18 20 19 19 16 15 13 13 11 11 11 11 13 17 18 14 12 15 19 19 18
11 12 13 13 12 13 13 14 13 14 18 20 20 19 19 18 17 15 14 13 12 11 10 10 14 17 19 15 10 17 19 17 13
13 13 14 14 14 14 14 16 17 16 19 20 20 19 20 19 18 16 16 13 13 12 11 14 16 16 17 15 13 14 16 15 14
17 15 14 16 15 15 16 17 19 19 20 22 22 21 21 21 21 19 18 16 14 12 13 16 19 20 20 16 14 16 18 20 16
15 17 14 14 16 16 16 17 20 22 24 24 27 25 23 23 21 21 21 21 17 14 16 19 21 22 22 19 17 19 21 18 19
11 13 15 18 13 15 17 19 22 25 28 27 26 27 28 26 23 22 22 25 23 18 19 19 22 23 23 23 17 21 21 22 17
8 8 9 11 12 13 15 17 21 25 28 29 29 27 27 28 27 25 23 25 27 24 22 22 21 23 21 22 23 21 24 23 21
5 3 5 6 6 9 9 13 19 23 27 31 32 30 26 24 25 27 27 24 28 30 25 26 26 27 25 23 24 25 26 27 24
8 6 5 6 7 7 9 12 13 17 19 25 28 30 31 28 27 27 28 31 30 31 32 29 29 30 30 28 27 29 32 32 30
12 10 9 8 7 6 7 10 13 15 18 22 26 31 29 32 33 29 28 27 32 34 32 35 33 31 32 31 29 32 34 35 34
14 13 13 10 8 7 7 8 9 13 14 18 21 20 23 29 29 29 28 28 32 36 35 34 39 35 34 35 33 34 35 37 36
14 13 14 13 13 10 8 8 9 11 12 15 18 22 26 28 32 35 33 33 29 31 35 38 40 40 36 39 38 36 37 38 40
14 14 14 15 15 13 10 10 10 10 10 13 13 20 24 30 32 31 36 36 35 36 38 40 38 41 42 40 41 40 38 40 43
17 15 15 16 15 14 15 12 8 6 8 4 6 3 6 21 29 29 31 32 34 33 40 36 35 39 42 43 42 41 43 40 48
17 17 16 16 16 17 15 16 12 7 6 6 3 3 3 2 10 24 29 25 28 31 34 38 39 35 38 39 40 40 40 41 35
16 16 16 16 15 16 15 16 15 10 7 8 3 5 5 2 2 1 8 13 20 26 28 31 38 36 43 40 42 41 41 40 40
18 17 16 15 14 14 14 16 17 17 10 9 8 7 9 5 3 2 3 6 9 12 10 5 6 17 31 39 45 41 39 38 40
Wind_Direction
267 261 276 270 221 215 204 195 190 189 175 171 166 166 164 160 156 151 149 144 143 143 147 150 145 149 146 140 136 136 134 132 130
248 259 252 253 230 227 206 193 188 189 180 174 171 170 167 165 159 154 149 147 151 152 154 154 157 159 149 145 142 141 140 134 131
249 252 247 236 236 230 218 207 193 185 179 177 174 172 172 171 167 164 167 169 162 163 163 161 161 157 152 149 147 145 151 143 139
255 253 247 240 228 227 226 216 205 195 183 180 177 177 179 180 182 179 177 170 170 172 175 178 182 173 161 163 182 175 153 147 136
255 253 246 242 238 229 226 225 215 202 198 187 187 191 191 194 189 188 184 183 180 179 188 190 183 174 169 169 169 160 158 156 164
254 252 248 246 242 237 231 228 222 214 207 200 195 197 198 201 198 198 196 196 191 192 200 197 191 186 180 185 187 192 175 187 187
253 251 251 247 240 244 237 232 227 216 213 209 210 208 208 207 207 204 206 204 205 211 212 204 204 203 186 187 209 200 190 189 190
249 252 253 269 250 241 241 233 231 227 220 214 214 215 214 214 213 215 213 214 215 225 222 220 213 207 191 191 196 200 193 194 206
258 252 249 247 259 258 251 244 238 230 229 225 219 220 221 222 223 222 223 223 222 226 226 223 221 219 199 206 204 213 198 191 216
289 278 289 276 272 267 259 257 251 245 240 233 226 223 225 227 232 232 231 227 228 229 230 225 219 207 206 206 213 220 212 197 208
31 338 341 335 293 291 290 276 264 258 252 247 236 227 230 237 240 242 237 231 233 237 232 232 222 218 215 214 213 217 210 197 199
69 60 34 7 331 332 313 300 288 264 258 258 255 245 238 245 251 246 247 242 239 242 237 235 233 225 219 217 218 220 215 204 205
47 39 27 17 8 346 330 324 303 294 276 256 254 249 244 236 243 253 250 245 238 239 243 240 238 235 228 221 220 218 217 210 207
39 29 18 6 353 332 332 315 334 302 279 282 265 246 242 239 256 252 252 249 245 243 240 249 242 238 240 220 221 219 218 214 210
35 25 14 4 347 328 316 315 300 294 308 299 267 264 264 250 247 254 258 252 251 252 253 253 250 242 237 230 224 223 223 221 214
44 37 30 22 8 353 350 334 324 314 309 313 286 266 268 255 253 256 257 252 254 257 254 261 260 248 239 235 234 227 225 223 217
37 41 44 40 31 18 11 1 336 316 328 308 306 258 251 247 252 245 249 256 255 250 252 260 261 256 246 236 233 235 232 232 215
45 42 42 47 40 33 22 9 356 325 322 323 265 306 266 322 237 233 239 257 247 248 252 259 264 255 245 246 240 237 238 241 233
45 44 44 46 49 45 37 28 21 5 349 339 260 279 286 290 292 314 305 276 264 268 255 255 252 264 248 247 248 244 240 241 240
41 39 38 39 41 44 42 44 41 38 20 21 353 348 334 350 331 308 333 13 325 302 295 272 317 258 256 246 242 243 248 248 243